{"data":{"norad_id":48287,"epoch":"2026-09-19T13:16:32.225664Z","epoch_age_seconds":115454,"freshness":"FRESH","line1":"1 48287U 21036M   26262.55315076 -.00001142  00000+0 -25038-4 0  9992","line2":"2 48287  53.1604 255.6034 0001657  66.0404 294.0771 15.31691861298071","mean_motion":15.31691861,"eccentricity":0.0001657,"inclination_deg":53.1604,"raan_deg":255.6034,"arg_perigee_deg":66.0404,"mean_anomaly_deg":294.0771,"bstar":-2.5038e-5,"rev_number":29807,"period_min":94.013687521971,"perigee_km":469.62939433023,"apogee_km":471.89912020689,"semimajor_km":6848.9012572686,"source":"CELESTRAK","updated_at":"2026-09-20T09:00:38.929510Z"}}